Tracking 29892 objects as of 21-Nov-2024
HD Live streaming from Space Station
objects crossing your sky now

COSMOS 1823 DEB

Track COSMOS 1823 DEB now!
10-day predictions


NORAD ID: 18910
Int'l Code: 1987-020AU
Perigee: 1,468.2 km
Apogee: 1,488.1 km
Inclination: 73.7 °
Period: 115.3 minutes
Semi major axis: 7849 km
RCS: 0.0485 m2 (small)
Launch date: February 20, 1987
Source: Commonwealth of Independent States (former USSR) (CIS)
Launch site: PLESETSK MISSILE AND SPACE COMPLEX (PKMTR)

Note: This is SATELLITE DEBRIS
Your satellite tracking list
Your tracking list is empty




NASA's NSSDC Master Catalog

Two Line Element Set (TLE):
1 18910U 87020AU  24325.13025396  .00000394  00000-0  27619-2 0  9994
2 18910  73.6780   3.4234 0012688  31.3669 358.6789 12.48451573679166
Source of the keplerian elements: AFSPC